Fairbanks Ft. Wainwright, AK

3:26 PM AKDT on July 25, 2017 (GMT -0800)
Ladd Army Air Field

Weather History for PAFB - November, 2012

Change the Weather History Date:

Saturday, November 24, 2012

  Actual Average Record
Temperature  
Mean Temperature -13 °F -  
Max Temperature -6 °F 4 °F 30 °F (2015)
Min Temperature -20 °F -3 °F -20 °F (2012)
Degree Days  
Heating Degree Days 78    
Moisture  
Dew Point -22 °F    
Average Humidity 73    
Maximum Humidity 78    
Minimum Humidity 68    
Precipitation  
Precipitation 0.00 in - - ()
Sea Level Pressure  
Sea Level Pressure 30.19 in    
Wind  
Wind Speed 2 mph (East)    
Max Wind Speed 8 mph    
Max Gust Speed -    
Visibility 10 miles    
Events      
Averages and records for this station are not official NWS values.
T = Trace of Precipitation, MM = Missing Value Source: NWS Daily Summary

Daily Weather History Graph

Daily Weather History Graph

Search for Another Location

Airport or City:

Trip Planner

Search our weather history database for the weather conditions in past years. The results will help you decide how hot, cold, wet, or windy it might be!

Date:

Astronomy

Nov. 24, 2012 Rise Set
Actual Time 9:58 AM AKST 3:15 PM AKST
Civil Twilight 8:48 AM AKST 4:25 PM AKST
Nautical Twilight 7:42 AM AKST 5:31 PM AKST
Astronomical Twilight 6:43 AM AKST 6:30 PM AKST
Moon 2:11 PM AKST (11/24) 5:10 AM AKST (11/24)
Length of Visible Light 7h 36m
Length of Day
5h 16m
Waxing Gibbous, 88% of the Moon is Illuminated
Nov 24
Waxing Gibbous
Nov 28
Full
Dec 6
Last Quarter
Dec 12
New
Dec 19
First Quarter

Hourly Weather History & Observations

Time (AKST) Temp. Windchill Dew Point Humidity Pressure Visibility Wind Dir Wind Speed Gust Speed Precip Events Conditions
12:56 AM -9.9 °F -23.4 °F -17.0 °F 71% 30.14 in 10.0 mi East 5.8 mph - N/A   Clear
1:56 AM -6.0 °F -21.5 °F -14.1 °F 68% 30.14 in 10.0 mi ENE 8.1 mph - N/A   Clear
2:56 AM -9.0 °F - -15.0 °F 75% 30.15 in 10.0 mi Calm Calm - N/A   Clear
3:56 AM -9.0 °F -22.3 °F -16.1 °F 71% 30.14 in 10.0 mi SSE 5.8 mph - N/A   Clear
4:56 AM -11.9 °F - -18.0 °F 74% 30.16 in 10.0 mi Calm Calm - N/A   Clear
5:56 AM -18.0 °F - -23.1 °F 78% 30.16 in 10.0 mi Calm Calm - N/A   Clear
6:56 AM -18.9 °F - -25.1 °F 74% 30.16 in 10.0 mi Calm Calm - N/A   Clear
7:56 AM -18.0 °F - -25.1 °F 70% 30.17 in 10.0 mi Calm Calm - N/A   Clear
8:56 AM -20.0 °F - -26.0 °F 74% 30.18 in 10.0 mi Calm Calm - N/A   Clear
9:56 AM -20.0 °F - -25.1 °F 78% 30.18 in 10.0 mi Calm Calm - N/A   Clear
10:56 AM -18.0 °F - -25.1 °F 70% 30.18 in 10.0 mi Calm Calm - N/A   Clear
11:56 AM -16.1 °F - -22.0 °F 74% 30.20 in 10.0 mi Calm Calm - N/A   Clear
12:56 PM -15.0 °F - -20.9 °F 75% 30.19 in 10.0 mi Calm Calm - N/A   Clear
1:56 PM -11.9 °F - -18.0 °F 74% 30.19 in 10.0 mi Calm Calm - N/A   Clear
2:56 PM -15.0 °F - -20.0 °F 78% 30.19 in 10.0 mi Calm Calm - N/A   Clear
3:56 PM -16.1 °F - -22.0 °F 74% 30.19 in 10.0 mi Calm Calm - N/A   Clear
4:56 PM -17.0 °F -27.2 °F -23.1 °F 74% 30.21 in 10.0 mi NE 3.5 mph - N/A   Clear
5:56 PM -18.0 °F - -24.0 °F 74% 30.22 in 10.0 mi Calm Calm - N/A   Clear
6:56 PM -20.0 °F - -26.0 °F 74% 30.22 in 10.0 mi Calm Calm - N/A   Clear
7:56 PM -20.0 °F - -27.0 °F 70% 30.23 in 10.0 mi Calm Calm - N/A   Clear
8:56 PM -20.0 °F - -27.0 °F 70% 30.24 in 10.0 mi Calm Calm - N/A   Clear
9:56 PM -20.0 °F - -26.0 °F 74% 30.26 in 10.0 mi Calm Calm - N/A   Clear
10:56 PM -20.9 °F - -27.0 °F 73% 30.27 in 10.0 mi Calm Calm - N/A   Clear
11:56 PM -20.9 °F - -27.0 °F 73% 30.29 in 10.0 mi Calm Calm - N/A   Clear